Weather History for Whiteman AFB, MO

Change the Weather History Date:

Saturday, May 3, 2014

  Actual Average Record
Temperature  
Mean Temperature 60 °F -  
Max Temperature 76 °F 70 °F 84 °F (2001)
Min Temperature 44 °F 51 °F 32 °F (2013)
Degree Days  
Heating Degree Days 6    
Growing Degree Days 10 (Base 50)    
Moisture  
Dew Point 40 °F    
Average Humidity 39    
Maximum Humidity 61    
Minimum Humidity 27    
Precipitation  
Precipitation 0.00 in - - ()
Sea Level Pressure  
Sea Level Pressure 29.90 in    
Wind  
Wind Speed 5 mph (East)    
Max Wind Speed 12 mph    
Max Gust Speed -    
Visibility 5 miles    
Events      
Averages and records for this station are not official NWS values.
T = Trace of Precipitation, MM = Missing Value Source: NWS Daily Summary

Daily Weather History Graph

Daily Weather History Graph

Search for Another Location

Airport:

Trip Planner

Search our weather history database for the weather conditions in past years. The results will help you decide how hot, cold, wet, or windy it might be!

Date:

Astronomy

May. 03, 2014 Rise Set
Actual Time 6:14 AM CDT 8:08 PM CDT
Civil Twilight 5:45 AM CDT 8:37 PM CDT
Nautical Twilight 5:10 AM CDT 9:12 PM CDT
Astronomical Twilight 4:32 AM CDT 9:50 PM CDT
Moon 9:45 AM CDT (5/3) No Moon Set
Length of Visible Light 14h 51m
Length of Day
13h 54m
Waxing Crescent, 20% of the Moon is Illuminated
May 3
Waxing Crescent
May 6
First Quarter
May 14
Full
May 21
Last Quarter
May 28
New

Hourly Weather History & Observations

Time (CDT) Temp. Windchill Dew Point Humidity Pressure Visibility Wind Dir Wind Speed Gust Speed Precip Events Conditions
12:58 AM 57.4 °F - 27.9 °F 32% 29.82 in 10.0 mi SW 11.5 mph - N/A   Mostly Cloudy
1:58 AM 55.6 °F - 28.8 °F 36% 29.83 in 10.0 mi SW 11.5 mph - N/A   Clear
2:58 AM 53.6 °F - 29.3 °F 39% 29.86 in 10.0 mi WSW 5.8 mph - N/A   Scattered Clouds
3:58 AM 52.5 °F - 29.8 °F 42% 29.88 in 10.0 mi West 6.9 mph - N/A   Scattered Clouds
4:58 AM 50.5 °F - 29.5 °F 44% 29.88 in 10.0 mi West 5.8 mph - N/A   Clear
5:58 AM 50.2 °F - 28.6 °F 43% 29.90 in 10.0 mi Calm Calm - N/A   Clear
6:58 AM 44.8 °F 42.4 °F 32.2 °F 61% 29.92 in 10.0 mi SSW 4.6 mph - N/A   Clear
7:58 AM 53.1 °F - 35.8 °F 52% 29.93 in 10.0 mi SW 1.2 mph - N/A   Clear
8:58 AM 59.2 °F - 35.4 °F 41% 29.94 in 10.0 mi Calm Calm - N/A   Clear
9:58 AM 63.5 °F - 36.3 °F 36% 29.94 in 10.0 mi SE 4.6 mph - N/A   Clear
10:58 AM 66.6 °F - 36.9 °F 33% 29.94 in 10.0 mi Calm Calm - N/A   Clear
11:58 AM 68.2 °F - 34.2 °F 28% 29.95 in 10.0 mi Variable 1.2 mph - N/A   Clear
12:58 PM 70.2 °F - 36.3 °F 29% 29.93 in 10.0 mi Calm Calm - N/A   Clear
1:58 PM 72.5 °F - 43.0 °F 35% 29.92 in 10.0 mi ESE 4.6 mph - N/A   Clear
2:58 PM 73.0 °F - 37.6 °F 28% 29.92 in 2.5 mi Variable 2.3 mph - N/A   Haze
3:08 PM 73.4 °F - 37.4 °F 27% 29.92 in 3.0 mi Variable 1.2 mph - N/A   Haze
3:28 PM 73.4 °F - 42.8 °F 33% 29.92 in 2.0 mi SSE 4.6 mph - N/A   Haze
3:33 PM 73.4 °F - 39.2 °F 29% 29.92 in 1.2 mi Variable 1.2 mph - N/A   Haze
3:43 PM 73.4 °F - 37.4 °F 27% 29.91 in 1.0 mi Variable 4.6 mph - N/A   Haze
3:53 PM 75.2 °F - 39.2 °F 27% 29.91 in 1.2 mi NNE 5.8 mph - N/A   Haze
3:58 PM 74.5 °F - 39.4 °F 28% 29.91 in 2.5 mi NNE 6.9 mph - N/A   Haze
4:03 PM 75.2 °F - 39.2 °F 27% 29.91 in 4.0 mi NNE 2.3 mph - N/A   Haze
4:58 PM 75.7 °F - 45.5 °F 34% 29.91 in 6.0 mi North 4.6 mph - N/A   Haze
5:58 PM 74.7 °F - 46.9 °F 37% 29.91 in 3.0 mi Calm Calm - N/A   Haze
6:53 PM 75.2 °F - 42.8 °F 31% 29.89 in 1.8 mi East 3.5 mph - N/A   Haze
6:58 PM 74.8 °F - 44.2 °F 33% 29.89 in 1.5 mi ENE 1.2 mph - N/A   Haze
7:03 PM 75.2 °F - 39.2 °F 27% 29.89 in 2.5 mi Calm Calm - N/A   Haze
7:08 PM 75.2 °F - 41.0 °F 29% 29.89 in 3.0 mi Calm Calm - N/A   Haze
7:13 PM 73.4 °F - 42.8 °F 33% 29.90 in 2.0 mi Calm Calm - N/A   Haze
7:18 PM 73.4 °F - 46.4 °F 38% 29.90 in 1.5 mi Calm Calm - N/A   Haze
7:28 PM 71.6 °F - 46.4 °F 41% 29.90 in 3.0 mi East 2.3 mph - N/A   Haze
7:58 PM 70.7 °F - 51.1 °F 50% 29.89 in 4.0 mi ESE 3.5 mph - N/A   Haze
8:58 PM 65.5 °F - 46.4 °F 50% 29.89 in 3.0 mi ENE 5.8 mph - N/A   Haze
9:03 PM 64.4 °F - 46.4 °F 52% 29.89 in 2.5 mi ENE 6.9 mph - N/A   Haze
9:13 PM 64.4 °F - 46.4 °F 52% 29.89 in 3.0 mi ENE 6.9 mph - N/A   Haze
9:23 PM 64.4 °F - 44.6 °F 49% 29.89 in 3.0 mi East 6.9 mph - N/A   Haze
9:28 PM 64.4 °F - 44.6 °F 49% 29.90 in 3.0 mi East 6.9 mph - N/A   Haze
9:58 PM 62.8 °F - 43.7 °F 50% 29.90 in 3.0 mi East 5.8 mph - N/A   Haze
10:58 PM 62.6 °F - 41.2 °F 45% 29.92 in 4.0 mi Variable 3.5 mph - N/A   Haze
11:28 PM 62.6 °F - 41.0 °F 45% 29.92 in 9.0 mi ESE 8.1 mph - N/A   Clear
11:48 PM 60.8 °F - 41.0 °F 48% 29.91 in 5.0 mi ESE 5.8 mph - N/A   Haze
11:58 PM 61.2 °F - 41.2 °F 48% 29.92 in 6.0 mi SE 5.8 mph - N/A   Haze